DW5827 Weather Reports


time (UTC)temp
C
wind
direction
speed
KPH
gust
KPH
rain 1hr
cm
rain 24hr
cm
rain mn
cm
humidity
%
barometer
mb
20260507075022 5 0.0 1.6 0.00 0.03 0.00 64 1023.8
20260507074022 5 23 1.6 3.2 0.00 0.03 0.00 64 1023.5
20260507073041 5 0.0 1.6 0.00 0.03 0.00 64 1023.9
20260507072021 5 68 1.6 1.6 0.00 0.03 0.00 63 1023.9
20260507071021 5 68 1.6 3.2 0.00 0.03 0.00 64 1023.9
20260507070021 5 0.0 0.0 0.00 0.03 0.03 64 1023.9
20260507065021 5 0.0 1.6 0.00 0.03 0.03 63 1023.3
20260507064020 6 0.0 0.0 0.00 0.03 0.03 62 1023.6
20260507063020 6 0.0 1.6 0.00 0.03 0.03 61 1023.2
20260507062021 6 0.0 1.6 0.00 0.03 0.03 62 1023.1
20260507061021 6 0.0 1.6 0.00 0.03 0.03 61 1023.0
20260507060020 6 0.0 1.6 0.00 0.03 0.03 59 1023.0
20260507055041 6 0.0 1.6 0.00 0.03 0.03 60 1022.9
20260507054041 7 0.0 1.6 0.00 0.03 0.03 59 1022.8
20260507053021 7 0.0 3.2 0.00 0.03 0.03 58 1022.8
20260507052041 7 0.0 1.6 0.00 0.03 0.03 59 1022.2
20260507051021 7 0.0 1.6 0.00 0.03 0.03 58 1022.6
20260507050021 7 0.0 1.6 0.00 0.03 0.03 57 1022.5
20260507045020 8 0.0 1.6 0.00 0.03 0.03 56 1022.0
20260507044021 8 0.0 1.6 0.00 0.03 0.03 55 1022.0
20260507043041 8 68 1.6 3.2 0.00 0.03 0.03 55 1021.9
20260507042041 8 0.0 1.6 0.00 0.03 0.03 55 1021.7
20260507041021 8 0.0 1.6 0.00 0.03 0.03 53 1021.6
20260507040021 9 0.0 1.6 0.00 0.03 0.03 54 1021.6
20260507035020 10 0.0 0.0 0.00 0.03 0.03 51 1021.5
20260507034021 10 0.0 0.0 0.00 0.03 0.03 50 1021.5
20260507033021 11 0.0 0.0 0.00 0.03 0.03 49 1021.9
20260507032024 11 0.0 0.0 0.00 0.03 0.03 48 1021.7
20260507031021 12 0.0 0.0 0.00 0.05 0.03 47 1021.2
20260507030021 12 0.0 1.6 0.00 0.10 0.03 45 1020.6
20260507025021 12 0.0 0.0 0.00 0.13 0.03 45 1019.9
20260507024021 12 0.0 0.0 0.00 0.15 0.03 42 1019.7
20260507023021 13 0.0 0.0 0.00 0.15 0.03 41 1019.1
20260507022021 14 0.0 0.0 0.00 0.15 0.03 38 1019.0
20260507021021 15 0.0 0.0 0.00 0.15 0.03 36 1018.6
20260507020021 15 0.0 1.6 0.00 0.15 0.03 36 1018.6
20260507015102 16 0.0 0.0 0.00 0.15 0.03 34 1018.6
20260507014021 16 0.0 1.6 0.00 0.18 0.03 33 1018.6
20260507013021 17 0.0 3.2 0.00 0.18 0.03 30 1018.9
20260507012021 17 0.0 1.6 0.00 0.18 0.03 29 1018.9
20260507011021 18 0.0 3.2 0.00 0.18 0.03 28 1018.9
20260507010021 18 248 1.6 9.7 0.00 0.18 0.03 27 1019.3
20260507005022 18 23 1.6 6.4 0.00 0.20 0.03 27 1019.1
20260507004021 19 338 1.6 8.0 0.00 0.20 0.03 27 1019.2
20260507003041 19 315 1.6 6.4 0.00 0.20 0.03 26 1019.1
20260507002021 20 225 1.6 3.2 0.00 0.23 0.03 27 1019.1
20260507001021 20 225 3.2 9.7 0.00 0.30 0.03 25 1019.5
20260507000041 20 225 3.2 9.7 0.00 0.33 0.03 26 1019.6
20260506235021 20 23 1.6 4.8 0.00 0.36 0.03 26 1019.5
20260506234021 20 0 3.2 9.7 0.00 0.36 0.03 27 1019.5
20260506233021 20 293 3.2 8.0 0.00 0.36 0.03 26 1019.6
20260506232021 20 113 3.2 9.7 0.00 0.36 0.03 25 1019.6
20260506231022 20 225 3.2 12.9 0.00 0.38 0.03 27 1019.7
20260506230021 20 135 1.6 4.8 0.00 0.38 0.03 27 1019.8
20260506225021 20 225 1.6 6.4 0.00 0.38 0.03 26 1020.2
20260506224041 20 338 1.6 6.4 0.00 0.38 0.03 27 1020.5
20260506223021 20 225 1.6 6.4 0.00 0.38 0.03 27 1020.1
20260506222021 19 225 1.6 4.8 0.00 0.38 0.03 28 1020.1
20260506221022 19 0 3.2 11.3 0.00 0.38 0.03 29 1020.5
20260506220021 19 225 3.2 12.9 0.00 0.38 0.03 30 1020.7
20260506215021 18 225 3.2 11.3 0.00 0.38 0.03 29 1020.2
20260506214021 18 23 3.2 8.0 0.00 0.38 0.03 29 1020.5
20260506213021 19 248 3.2 8.0 0.00 0.38 0.03 31 1020.9
20260506212021 19 135 1.6 6.4 0.00 0.38 0.03 31 1021.0
20260506211041 19 45 3.2 9.7 0.00 0.38 0.03 30 1021.2
20260506210022 18 248 3.2 8.0 0.00 0.38 0.03 32 1020.8
20260506205021 18 248 3.2 11.3 0.00 0.38 0.03 33 1020.8
20260506204021 18 225 3.2 9.7 0.00 0.38 0.03 33 1021.4
20260506203021 18 90 1.6 4.8 0.00 0.38 0.03 32 1021.0
20260506202021 18 23 3.2 6.4 0.00 0.38 0.03 34 1021.2
20260506201021 17 338 1.6 12.9 0.00 0.38 0.03 35 1021.2
20260506200041 17 248 3.2 9.7 0.00 0.38 0.03 35 1021.4
20260506195022 17 248 3.2 8.0 0.00 0.38 0.03 38 1021.6
20260506194021 17 0 4.8 11.3 0.00 0.38 0.03 37 1021.2
20260506193041 17 338 1.6 6.4 0.00 0.38 0.03 35 1021.6
20260506192021 17 225 3.2 9.7 0.00 0.38 0.03 37 1021.7
20260506191021 17 225 1.6 6.4 0.00 0.38 0.03 38 1021.8
20260506190041 16 225 3.2 8.0 0.00 0.38 0.03 40 1021.9
20260506185022 16 248 1.6 12.9 0.00 0.38 0.03 39 1021.6
20260506184021 16 248 3.2 9.7 0.00 0.38 0.03 40 1022.1
20260506183021 15 248 3.2 11.3 0.00 0.38 0.03 40 1021.6
20260506182022 15 225 1.6 4.8 0.00 0.38 0.03 41 1021.8
20260506181022 15 23 1.6 6.4 0.00 0.38 0.03 41 1021.8
20260506180022 14 180 3.2 9.7 0.00 0.38 0.03 42 1021.9
20260506175022 14 23 1.6 6.4 0.00 0.38 0.03 44 1021.9
20260506174021 14 248 1.6 4.8 0.00 0.38 0.03 43 1021.9
20260506173022 13 225 3.2 8.0 0.00 0.38 0.03 45 1021.9
20260506172021 13 203 1.6 8.0 0.00 0.38 0.03 46 1021.5
20260506171022 13 225 1.6 9.7 0.00 0.38 0.03 46 1021.5
20260506170021 13 0.0 3.2 0.00 0.41 0.03 47 1022.1
20260506165021 12 225 1.6 3.2 0.03 0.41 0.03 48 1021.5
20260506164021 12 248 1.6 6.4 0.03 0.41 0.03 48 1021.4
20260506163022 11 0.0 4.8 0.03 0.41 0.03 50 1021.4
20260506162022 11 225 1.6 8.0 0.03 0.41 0.03 50 1021.4
20260506161021 11 203 1.6 6.4 0.03 0.41 0.03 53 1020.9
20260506160023 11 0.0 3.2 0.03 0.41 0.03 57 1021.4
20260506155021 10 0.0 4.8 0.00 0.38 0.00 55 1020.8
20260506154021 10 0.0 3.2 0.00 0.38 0.00 60 1020.9
20260506153021 10 0.0 1.6 0.00 0.38 0.00 65 1020.9
20260506152022 9 0.0 1.6 0.00 0.38 0.00 69 1020.4
20260506151042 8 0.0 1.6 0.00 0.38 0.00 75 1020.4
20260506150042 7 0.0 1.6 0.00 0.38 0.00 85 1020.0
20260506145021 5 0.0 0.0 0.00 0.38 0.00 94 1019.2
20260506144021 5 0.0 0.0 0.00 0.38 0.00 94 1019.1
20260506143021 3 0.0 0.0 0.00 0.38 0.00 94 1018.0
20260506142021 2 0.0 0.0 0.00 0.38 0.00 93 1017.9
20260506141022 1 0.0 0.0 0.00 0.38 0.00 93 1016.8
20260506140022 0 0.0 0.0 0.00 0.38 0.00 93 1016.0
20260506135041 0 0.0 0.0 0.00 0.38 0.00 93 1016.0
20260506134021 0 0.0 0.0 0.00 0.38 0.00 93 1015.4
20260506133022 0 0.0 0.0 0.00 0.38 0.00 93 1015.3
20260506132022 0 0.0 0.0 0.00 0.38 0.00 93 1015.2
20260506131021 -1 0.0 1.6 0.00 0.38 0.00 93 1015.1
20260506130022 -1 0.0 1.6 0.00 0.38 0.00 92 1015.1
20260506125021 -1 0.0 0.0 0.00 0.38 0.00 92 1014.5
20260506124102 -1 0.0 1.6 0.00 0.38 0.00 92 1014.2
20260506123021 -1 0.0 1.6 0.00 0.38 0.00 92 1014.0
20260506122022 -1 0.0 0.0 0.00 0.38 0.00 92 1014.2
20260506121021 -1 0.0 0.0 0.00 0.38 0.00 92 1014.1
20260506120022 -1 0.0 0.0 0.00 0.38 0.00 92 1014.0
20260506115021 -1 0.0 0.0 0.00 0.38 0.00 92 1013.9
20260506114042 -1 0.0 0.0 0.00 0.38 0.00 92 1013.9
20260506113022 -1 0.0 0.0 0.00 0.38 0.00 92 1013.8
20260506112022 0 0.0 0.0 0.00 0.38 0.00 92 1014.2
20260506111022 0 0.0 0.0 0.00 0.38 0.00 92 1014.6
20260506110022 0 0.0 0.0 0.00 0.38 0.00 92 1014.9
20260506105041 0 0.0 0.0 0.00 0.38 0.00 92 1014.8
20260506104022 0 0.0 0.0 0.00 0.38 0.00 92 1014.8
20260506103021 0 0.0 0.0 0.00 0.38 0.00 92 1014.7
20260506102022 0 0.0 0.0 0.00 0.38 0.00 92 1014.6
20260506101021 0 0.0 0.0 0.00 0.38 0.00 92 1014.5
20260506100041 0 0.0 0.0 0.00 0.38 0.00 92 1014.4
20260506095022 0 0.0 1.6 0.00 0.38 0.00 92 1014.4
20260506094022 0 0.0 0.0 0.00 0.38 0.00 92 1014.3
20260506093021 0 0.0 0.0 0.00 0.38 0.00 92 1014.6
20260506092022 0 0.0 0.0 0.00 0.38 0.00 92 1014.5
20260506091041 0 0.0 0.0 0.00 0.38 0.00 92 1015.0
20260506090041 0 0.0 0.0 0.00 0.38 0.00 92 1015.8
20260506085042 0 0.0 0.0 0.00 0.38 0.00 92 1015.8
20260506084022 0 0.0 0.0 0.00 0.38 0.00 92 1016.2
20260506083022 0 0.0 0.0 0.00 0.38 0.00 92 1016.2
20260506082021 0 0.0 0.0 0.00 0.38 0.00 91 1016.6
20260506081022 0 0.0 0.0 0.00 0.38 0.00 91 1016.6